Location: DarkSkies Observatory
(42.5924°N, 71.9747°W)
Time: 19:21:56
(UTC-05:00)

Tiangong 1 - Visible Passes

Search period start: 19 November 2017 00:00
Search period end: 29 November 2017 00:00
Orbit: 285 x 309 km, 42.8° (Epoch: 19 November)

Date Brightness Start Highest point End Pass type
(mag) Time Alt. Az. Time Alt. Az. Time Alt. Az.
24 Nov 2.9 17:44:15 10° S 17:45:39 15° SSE 17:45:39 15° SSE visible
25 Nov 2.1 17:50:00 10° SW 17:51:59 25° SSE 17:51:59 25° SSE visible
26 Nov 1.5 17:56:04 10° SW 17:58:10 40° S 17:58:10 40° S visible
27 Nov 1.6 18:02:15 10° WSW 18:04:12 45° SW 18:04:12 45° SW visible
28 Nov 2.2 18:08:25 10° W 18:10:06 35° W 18:10:06 35° W visible
